Location: Arrabal Las Matas
(41.5097°N, 1.9031°E)
Time: 00:45:44
(UTC+00:00)

Daily predictions for brighter satellites

Satellite Brightness Start Highest point End
(mag) Time Altitude Azimuth Time Altitude Azimuth Time Altitude Azimuth
Cosmos 2082 Rocket 4.0 03:26:14 26° ENE 03:26:14 26° ENE 03:30:01 10° ESE
Cosmos 2344 4.2 03:30:16 41° SSE 03:31:52 47° ESE 03:38:57 10° NE
Cosmos 2278 Rocket 4.2 03:47:02 20° NNE 03:47:02 20° NNE 03:48:43 10° NNE
CENTAUR R/B 4.2 03:44:23 16° SSE 03:47:48 27° ESE 03:53:05 10° NE
BREEZE-M DEB (TANK) 4.2 03:57:32 83° E 03:57:32 83° E 04:01:47 10° ESE
Cosmos 1833 Rocket 4.3 04:03:34 24° SSE 04:03:34 24° SSE 04:05:44 10° SSE
COSMOS 2455 3.5 04:06:59 45° SSE 04:06:59 45° SSE 04:11:03 10° SSE
Hubble Space Telescope 3.4 04:25:06 12° SSE 04:25:06 12° SSE 04:26:13 10° SSE
Cosmos 1464 Rocket 3.9 04:22:42 34° N 04:25:40 90° W 04:31:54 10° S
USA 215 3.5 04:27:18 10° ESE 04:33:45 65° NE 04:36:18 38° NNW
Cosmos 540 Rocket 3.3 04:42:04 70° WSW 04:42:04 70° WSW 04:46:59 10° S
SL-19 R/B 4.3 04:36:44 10° SSE 04:42:24 77° ENE 04:46:42 18° NNW
H-2A R/B 2.8 04:49:04 10° NNE 04:52:46 69° ESE 04:56:28 10° S
Cosmos 2151 2.9 04:52:59 10° S 04:57:15 84° E 05:01:34 10° N
SKYMED 2 3.8 04:54:16 10° SSE 04:58:33 67° ENE 05:02:07 15° N
APEX 4.2 04:58:13 27° NE 04:58:35 28° ENE 05:01:15 10° ESE
Aureole 1 Rocket 3.1 04:57:43 10° S 05:00:49 48° ESE 05:03:42 10° NNE
SJ-12 3.8 05:02:34 10° N 05:06:43 78° WNW 05:10:50 10° SSW
CZ-4C R/B 4.2 05:04:22 10° SE 05:07:20 37° ENE 05:09:43 14° N
Cosmos 2034 Rocket 4.0 05:02:25 10° NNW 05:08:31 60° W 05:14:38 10° S
Cosmos 2082 Rocket 2.4 05:08:09 38° WNW 05:09:34 45° WSW 05:14:52 10° S
FALCON 9 DEB 3.7 05:10:58 30° SSW 05:12:21 53° SE 05:15:40 10° ENE
Cosmos 1816 Rocket 4.5 05:06:26 10° SSW 05:12:30 59° W 05:18:41 10° N
COSMOS 2406 4.4 05:14:12 24° WSW 05:14:12 24° WSW 05:17:41 10° SSW
Meteor 2-3 Rocket 3.6 05:07:35 10° SSW 05:13:12 79° W 05:18:56 10° N
Cosmos 2297 3.6 05:07:35 10° SSW 05:13:20 79° WNW 05:19:06 10° NNE
Cosmos 841 Rocket 3.7 05:12:48 36° WNW 05:14:16 46° WSW 05:19:11 10° S
ADEOS 4.1 05:10:21 10° NNE 05:15:32 60° ESE 05:20:40 10° S
Gbstr 26 Del rocket 2.9 05:19:05 36° NW 05:20:31 68° NE 05:24:50 10° ESE
Cosmos 1943 Rocket 2.1 05:16:07 10° SSW 05:21:45 68° WNW 05:27:25 10° NNE
CZ-2C R/B 2.6 05:16:34 10° S 05:22:07 73° WSW 05:27:35 10° NNW
Meteor 2-13 Rocket 4.4 05:16:40 10° S 05:22:48 86° E 05:28:56 10° N
Cosmos 2098 Rocket 3.4 05:21:13 10° S 05:24:30 55° E 05:28:34 10° NNE
Envisat 3.0 05:20:45 10° N 05:25:44 57° WNW 05:30:41 10° SSW
Meteor 1-26 Rocket 4.2 05:20:15 10° NNW 05:26:16 81° W 05:32:04 10° S
BREEZE M DEB (TANK) 4.0 05:26:10 25° NW 05:27:02 27° NNW 05:29:28 10° NE
H-2A R/B 3.8 05:23:36 10° SE 05:27:18 31° ENE 05:31:06 10° N
Cosmos 2278 Rocket 3.8 05:28:55 16° NW 05:28:55 16° NW 05:31:25 10° N
OAO 3 Rocket 4.3 05:25:12 20° WSW 05:27:53 35° S 05:32:20 10° SE
Tsikada Rocket 4.0 05:24:29 10° SSW 05:30:29 54° W 05:36:37 10° N
Cosmos 2084 Rocket 4.0 05:31:44 29° NW 05:31:58 29° NW 05:35:24 10° NNE
Cosmos 1766 Rocket 4.2 05:29:25 10° S 05:33:40 58° E 05:37:57 10° NNE
CZ-4B R/B 3.7 05:30:32 10° NNE 05:34:00 46° E 05:37:26 10° S
Cosmos 1634 Rocket 3.9 05:28:26 10° N 05:34:45 80° W 05:40:58 10° S
NOSS 3-2 (A) 3.7 05:33:14 17° WSW 05:37:17 42° NW 05:43:20 10° NNE
CENTAUR R/B 2.6 05:32:12 10° SW 05:37:52 54° NW 05:44:42 10° NNE
Iridium 2 3.5 05:34:31 10° S 05:38:17 81° W 05:42:06 10° N
Cosmos 1570 Rocket 4.1 05:34:55 13° NNW 05:39:28 53° WSW 05:44:33 10° S
CZ-4B R/B 4.2 05:37:31 10° ESE 05:39:47 17° ENE 05:42:03 10° NNE
Cosmos 1782 2.8 05:37:43 10° NNW 05:41:36 54° W 05:45:26 10° S
NOSS 3-2 (C) 3.2 05:36:27 10° SW 05:41:54 66° NW 05:48:13 10° NNE
Cosmos 921 Rocket 3.2 05:38:38 10° NNW 05:43:02 74° ENE 05:47:28 10° SSE
Cosmos 1862 3.5 05:39:58 10° S 05:43:54 72° E 05:47:51 10° NNE
Cosmos 968 Rocket 3.4 05:40:10 10° SSW 05:45:16 62° WNW 05:50:23 10° NNE
Cosmos 2344 4.0 05:40:23 13° WSW 05:46:23 37° NW 05:53:36 10° NNE
COSMO-SKYMED 1 3.2 05:42:43 10° SSW 05:46:41 35° W 05:50:42 10° NNW
Landsat 5 3.9 05:42:57 10° S 05:47:15 46° W 05:51:37 10° NNW
IRAS Rocket 4.2 05:44:16 10° SSE 05:49:48 87° WSW 05:55:20 10° NNW
FALCON 9 DEB 3.6 05:49:40 24° WNW 05:50:38 31° NNW 05:53:17 10° NE
YAOGAN 6 4.0 05:48:44 10° NNW 05:52:25 17° W 05:54:02 10° WSW
Cosmos 1151 Rocket 3.0 05:48:31 10° N 05:52:55 84° W 05:57:18 10° S
Cosmos 1328 Rocket 3.9 05:48:40 10° N 05:53:04 68° E 05:57:24 10° SSE
DMSP B5D2-2 4.1 05:48:09 10° SSE 05:53:23 89° ENE 05:58:38 10° NNW
Meteor 1-31 Rocket 3.6 05:51:17 10° N 05:54:37 28° WNW 05:57:57 10° SW
OE (NEXTSAT) 4.3 05:52:56 20° WNW 05:55:13 77° NNE 05:58:38 10° ESE
Cosmos 1867 3.7 05:50:47 11° NW 05:55:54 61° WSW 06:01:15 10° SSE
Cosmos 1812 2.7 05:53:43 10° NNW 05:57:31 62° W 06:01:18 10° S
Cosmos 2263 4.4 05:52:11 10° SSW 05:57:50 77° ESE 06:03:34 10° NNE
BREEZE-M DEB (TANK) 3.9 05:44:19 10° SW 05:59:04 74° SSE 06:02:53 10° ENE
H-2A R/B 4.2 05:56:20 10° NE 06:00:32 28° E 06:04:42 10° SSE
Genesis I 3.5 05:57:45 10° NNW 06:01:52 74° ENE 06:05:54 10° SE
FALCON 9 DEB 4.2 06:01:29 16° WNW 06:02:35 20° NNW 06:04:49 10° NNE
Hubble Space Telescope 3.3 06:03:18 10° SSW 06:04:43 11° S 06:06:08 10° SSE
FALCON 9 DEB 4.4 06:06:02 14° NW 06:07:15 17° NNW 06:09:18 10° NNE
USA 238 DEB 4.0 06:04:11 10° WSW 06:10:19 43° NW 06:16:49 10° NNE
USA 238 4.0 06:04:17 10° WSW 06:10:25 43° NW 06:16:55 10° NNE
Cosmos 1408 Rocket 3.8 06:08:39 10° S 06:12:57 73° E 06:17:15 10° NNE
SMAP 3.3 06:08:41 10° NNE 06:13:21 78° ESE 06:18:00 10° S
FALCON 9 DEB 4.1 06:12:51 12° WNW 06:14:56 22° NNW 06:17:19 10° NNE
NOAA 12 4.1 06:10:36 10° N 06:15:52 72° WNW 06:21:05 10° SSW
USA 215 4.0 06:11:01 10° SSE 06:16:58 37° SW 06:22:56 10° WNW
CZ-2D R/B 4.4 06:14:40 10° NNE 06:18:22 48° E 06:22:02 10° S
Cosmos 2369 Rocket 2.3 06:15:35 10° SW 06:20:59 51° WNW 06:26:27 10° NNE
Cosmos 1503 Rocket 4.0 06:20:12 10° SSW 06:25:26 79° WNW 06:30:46 10° NNE
Meteor 1-27 Rocket 4.2 06:21:15 10° N 06:26:51 68° E 06:32:31 10° SSE
Cosmos 1515 Rocket 3.6 06:24:05 10° N 06:28:30 89° E 06:32:50 10° S
PSLV R/B 4.1 06:24:50 10° NNE 06:28:43 73° ESE 06:32:41 10° S
Cosmos 1939 Rocket 3.0 06:26:04 10° N 06:29:55 51° WNW 06:33:42 10° SSW
FALCON 9 R/B 3.9 06:20:21 10° W 06:37:40 49° SSW 06:42:51 10° SE
